{"data":{"norad_id":69986,"intl_designator":"2026-159M","name":"STARLINK-38073","alt_names":[],"object_type":"PAYLOAD","status":"ACTIVE","operator":null,"country":"US","launch_date":"2026-07-11","launch_site_code":"AFWTR","launch_vehicle":null,"mission":null,"orbit_class":"UNKNOWN","rcs_meters":null,"size_class":null,"mass_kg":null,"dimensions":null,"purposes":["comms"],"wikipedia_slug":null,"has_3d_model":false,"image_url":null,"decayed_at":null,"tle_current":{"epoch":"2026-09-19T23:46:24.975840Z","epoch_age_seconds":61816,"freshness":"FRESH","line1":"1 69986U 26159M   26262.99056685  .00030144  00000+0  55331-3 0  9998","line2":"2 69986  97.2828 104.7312 0001582  73.3496 286.7929 15.49213951 12367","mean_motion":15.49213951,"eccentricity":0.0001582,"inclination_deg":97.2828,"raan_deg":104.7312,"arg_perigee_deg":73.3496,"mean_anomaly_deg":286.7929,"bstar":0.00055331,"rev_number":1236,"period_min":92.950363574411,"perigee_km":417.94897487054,"apogee_km":420.09959670137,"semimajor_km":6797.161285786,"source":"CELESTRAK","updated_at":"2026-09-20T09:00:44.329943Z"}}}